Torna al catalogo

COSMOS 651

AttivoMilitareLEO
NORAD 7291·PAYLOAD·🇷🇺 Russia

Lanciato May 15, 1974 da Baikonur Cosmodrome

Loading…

Prossimi Passaggi (prossime 24 ore)

TLE

AggiornatoSource: Space-Track

Epoca: Sep 14, 2026, 06:20 UTC

1 07291U 74029A   26257.26445270 -.00000083  00000-0  64963-5 0  9998
2 07291  64.9695  79.3104 0033146   4.5961 355.5402 13.93097809663127

Traccia COSMOS 651 in tempo reale con AllMySat

Download on the App Store